[BOX] 2014/06/20 ATL 6 @ WSH 4

作者 bigmowang
看板 Braves
時間 2014-06-21 14:42:29
https://www.ptt.cc/bbs/Braves/M.1403332951.A.2CB.html
2014/06/20 1 2 3 4 5 6 7 8 9 10 11 12 13 R H E ATL(38W35L) 1 0 0 1 2 0 0 0 0 0 0 0 2 6 12 0 WSH(37W35L) 0 1 0 0 0 0 1 0 2 0 0 0 0 4 10 0 Atlanta AB R H RBI BB SO LOB AVG La Stella, 2B 4 0 1 0 0 1 0 .329 Pena, R, 2B 2 0 0 0 0 1 0 .207 Upton, B, CF 5 1 0 0 1 3 1 .205 Freeman, F, 1B 6 3 3 1 0 1 1 .286 Gattis, C 6 1 2 1 0 1 1 .298 Heyward, RF 6 1 2 2 0 2 2 .261 Johnson, C, 3B 5 0 2 0 1 2 1 .281 Simmons, A, SS 6 0 2 2 0 0 2 .256 Schafer, J, LF 6 0 0 0 0 3 6 .190 Minor, P 3 0 0 0 0 2 4 .143 Varvaro, P 0 0 0 0 0 0 0 .000 a-Doumit, PH 1 0 0 0 0 0 0 .215 Kimbrel, P 0 0 0 0 0 0 0 .000 Avilan, P 0 0 0 0 0 0 0 .000 Jaime, P 0 0 0 0 0 0 0 .000 b-Uggla, PH 1 0 0 0 0 0 0 .163 Buchter, P 0 0 0 0 0 0 0 .000 Walden, P 0 0 0 0 0 0 0 .000 Totals 51 6 12 6 2 16 18 .245 BATTING 2B: Johnson, C (14, Strasburg), Heyward (12, Strasburg), La Stella (3, Storen). HR: Freeman, F (12, 1st inning off Strasburg, 0 on, 2 out). TB: Johnson, C 3; Simmons, A 2; Gattis 2; Freeman, F 6; Heyward 3; La Stella 2. RBI: Freeman, F (37), Simmons, A 2 (22), Heyward 2 (29), Gattis (39). 2-out RBI: Freeman, F; Heyward 2. Runners left in scoring position, 2 out: Minor 4; Johnson, C; Gattis; Schafer, J. Team RISP: 4-for-15. Team LOB: 8. BASERUNNING SB: Schafer, J 2 (10, 2nd base off Strasburg/Lobaton, 2nd base off Strasburg/Lobaton). FIELDING PB: Gattis (3). DP: 2 (Simmons, A-La Stella-Freeman, F, Freeman, F-Simmons, A). Atlanta IP H R ER BB SO HR ERA Minor 7.0 7 2 2 2 11 1 4.20 Varvaro(H, 6) 1.0 2 0 0 0 1 0 2.57 Kimbrel(BS, 4) 1.0 1 2 2 2 0 1 2.45 Avilan 1.0 0 0 0 0 1 0 4.50 Jaime 1.0 0 0 0 1 2 0 0.00 Buchter(W, 1-0) 1.0 0 0 0 1 1 0 0.00 Walden(S, 2) 1.0 0 0 0 0 1 0 3.44 Totals 13.0 10 4 4 6 17 2 3.35 IBB: Johnson, C (by Blevins). Pitches-strikes: Minor 105-74, Varvaro 18-12, Kimbrel 25-13, Avilan 15-8, Jaime 23-15, Buchter 12-6, Walden 12-8. Groundouts-flyouts: Minor 4-0, Varvaro 0-1, Kimbrel 1-1, Avilan 1-1, Jaime 1-0, Buchter 1-0, Walden 1-0. Batters faced: Minor 29, Varvaro 5, Kimbrel 6, Avilan 3, Jaime 4, Buchter 3, Walden 3. Umpires: HP: Todd Tichenor. 1B: Clint Fagan. 2B: Mark Carlson. 3B: Tim Welke. Weather: 82 degrees, clear. Wind: 0 mph, None. T: 4:34. Att: 36,608. Venue: Nationals Park. June 20, 2014 Compiled by MLB Advanced Media 2戰連勝,超車就別再還回去了,把國民甩開吧!!! -- ※ 發信站: 批踢踢實業坊(ptt.cc), 來自: 163.24.254.166 PTT 文章網址: http://www.ptt.cc/bbs/Braves/M.1403332951.A.2CB.html
1Fduppy :在國聯東區真的超爽的,只要勝比敗多3場就能當龍頭, 06/21 19:35
2Fduppy :在其他分區哪可能這樣?!? 06/21 19:36
3FFukudome :弱小分區意外嗎?XD 06/21 20:02
4Fcj910 :83勝都可以拿下WS了 沒啥不可能的 XD 06/21 20:05
5Fk994win :明天對Fister QQ 06/21 20:19
6Fturkeyma :其實,我們這兩年加起來領先國民的勝場(共10.5場) 06/21 20:50
7Fturkeyma :基本上就是靠對戰打下來的 06/21 20:50
8Fturkeyma :扣除對戰,我們打得根本就像一個屁 06/21 20:50
9Fturkeyma :反過來說,國民除了對斧頭打得像個屁 06/21 20:50
10Fturkeyma :其他怎麼打都比較像一個 winning team 06/21 20:51
11Fbravefan :這屁理論真是很中肯! XD 06/21 20:53
12Fturkeyma :我現在終於懂了,難怪本隊隊版大部分時間都幹聲連連 06/21 20:58
13Fturkeyma :因為我們根本不是一個正常的 Winning team 06/21 20:58
14Fturkeyma :看開這一點,對大家看球都好 xD 06/21 21:09
15Fcj910 :為了維護隊板內的和氣 以後只開跟國民對戰的實況 XD 06/21 21:18
16Fa127n :永遠無法參透的球隊 ~ 06/21 22:29
17FVassili242 :幹聲連連也只是一時的抒發吧 也沒傷害皇城內的和氣阿 06/21 22:54
18Fobiwang520 :罵歸罵,永遠都是勇士球迷XD 06/21 23:01
19Fkingwei520 :重點就是看不開啊! 會激動還不是因為有期許嗎? 06/22 17:04
20Fkingwei520 :季前還是有些專家看好我們可以連莊的 06/22 17:06
21Fkingwei520 :然後開季到現在 打這樣真的不算合格吧! 06/22 17:07
22Fkingwei520 :特別是這條打線 很多時候真的令人吐血兼搖頭 06/22 17:07
23FVassili242 :沒看不開吧 倒是應該是看開了 打線很如預期阿 科 06/22 22:21
24FRodriguez :先發投手一直掛...還能怎麼樣呢? 06/23 09:33
25FRodriguez :打線...真的是開季就有預期會頗哈了~~^^ 06/23 09:33
26Fturkeyma :我是真的看開了。知道怎麼一回事,就享受棒球季吧 06/23 10:02
27Fkingwei520 :這條打線裡很多人真的可以去上吊了 06/23 20:19
28Fkingwei520 :幹 爛到一個不行 06/23 20:20
29Fcj910 :TLS打第一棒後完全撞牆 20個打數只擠出2支安打 06/23 20:49
30Fcj910 :Uptons一個二棒一個六棒 打起來是頗2266 06/23 20:50
31Fcj910 :CJohnson去年配額哥今年特產王 去年是每場三支一 06/23 20:51
32Fcj910 :今年變三場打一場熄火兩場 06/23 20:52
33Fkingwei520 :很多人都說國民天份多好又多好 其實我們也不差吧 06/23 21:49
34Fkingwei520 :季前也花錢了... 也沒明顯傷兵(至少打線上沒有) 06/23 21:49
35Fkingwei520 :打到現在居然是這種戰績.... 06/23 21:51
36Fsimonown :我是覺得教練團應該做一點調整了? 06/23 21:55
37Fkingwei520 :最要檢討的是這打天才打線 目前打75場比賽 06/23 21:58
38Fkingwei520 :居然有22場得分在2分以下 06/23 22:00
39Fkingwei520 :條 06/23 22:00
40Fturkeyma :我們到底被完封了幾場啊 應該快破十了吧? 06/23 22:09
41Fturkeyma :國外斧頭迷對FG真是譙聲連連 06/23 22:09
42Fkingwei520 :喔! 剛看了一下 我們被完封8場了 06/23 22:11
43Fkingwei520 :有13場比賽是得1分 但有拿3勝 06/23 22:11
44Fkingwei520 :得2分的有7場 也是拿3勝 06/23 22:12
45Fkingwei520 :團隊得分 上壘率 得分這些 都是國聯後段班 06/23 22:19
46FRoawen :731當seller也不錯啊 JUp跟Santana賣相應該都頗不錯 06/23 22:23
47FRoawen :屌一點連黑沃都可以賣了 直接打掉重練吧 科科 06/23 22:24
48Fsimonown :Fredi真的被罵很慘 超多人叫他滾的... 06/23 22:25
49FRoawen :對吼 打掉也很難重練 有即將到期的毒瘤阿瓜 還要毒 06/23 22:26
50FRoawen :3年半的腫瘤厄普頓哥 負債累累啊 06/23 22:27
51Fkingwei520 :連CJ都簽延長了.... 一整個無言以對啊 06/23 22:30
52FSmoltzy :撇開勝負不談,今年球賽最不好看的地方是很難感動 06/23 23:19
53Fkingwei520 :真想問勇士到底怎麼了???????????????????????? 06/23 23:20
54Fsimonown :外國鄉民也有人說這支球隊沒有passion... 06/23 23:37
55FRoawen :可能需要跟爪爪借passion sister加持一下 06/23 23:44
56Fsimonown :年輕小朋友太多 沒有leader嗎? 從Cox跟CJ離開之後.. 06/23 23:45
57Fsimonown :加上Hudson也不在了 別忘了去年八月一波大高潮就是 06/23 23:46
58Fsimonown :Huddy被踩傷之後將士用命打出來的... 06/23 23:46
59Fsimonown :現在的球隊好像就是一堆迷惘小朋友+打工仔組成的 06/23 23:46
60FSmoltzy :Cox要退休的那年,傷兵一堆,但球賽就是滿滿的洋蔥 06/23 23:46
61Fsimonown :忽然想到算前幾資深的McCann也走了 最老剩Freeman 06/23 23:49
62Fsimonown :跟Heyward了... 06/23 23:49
63Fsimonown :然後又要搬球場 觀眾人數也沒跟上戰績 真的是一片悶 06/23 23:50
64FSmoltzy :如果打跑有93年費城卡車司機幫那種拼勁,吾願足矣 06/23 23:55
65FSmoltzy :簡單說就是懷念MVPrado啦~ 看他打球就是爽 06/23 23:57
66Fsimonown :私心覺得Uggla也蠻拚的 可惜就是打不到 06/23 23:59
67Fsimonown :CJ+Uptons兄弟真的有點平淡乏力的感覺... 06/24 00:00
68Fa127n :我也有點懷念Prado... 06/24 00:15
69Fopqasd :如果Prado還在的話去年應該打不進季後賽了 06/24 11:45
70Fpia2 :國民繼續贏,馬大魚也贏了,看來明天過後我們會變老三 06/24 12:43
71Fturkeyma :變老三也不意外啊 國民這次拉開之後 06/24 14:02
72Fturkeyma :不知道還有沒有機會追上 06/24 14:02
73Fkingwei520 :雖然我們真的打很爛 但現在就說追不上會不會太早呢? 06/24 21:43
74Fduppy :我們接下來的對手是美聯西區最爛的太空人,超爽der 06/25 00:37
75Fa127n :其實我覺得對上太空人好抖 希望能發揮實力!! 06/25 00:48
76Fcj910 :打了才知道吧 搞不好會被年輕版的粉庫跟豪爾德痛擊 06/25 00:49
77Fnomad51227 :打線最大的問題不是天份 而是沒明顯傷兵還打不出來 06/25 04:14
78Fc0422kimo :太空人有很爛嗎??? 06/25 08:40